Skip Page Navigation
NASA JPL Caltech
NASA Logo - Jet Propulsion Laboratory + View the NASA Portal
+ Center for Near-Earth Object Studies
JPL Home Earth Solar System Stars & Galaxies Technology
JPL Solar System Dynamics
BODIES ORBITS EPHEMERIDES TOOLS PHYSICAL DATA DISCOVERY FAQ SITE MAP
JPL Small-Body Database Browser
Search: [ help ]  
78067 (2002 LN1)
Classification: Outer Main-belt Asteroid          SPK-ID: 2078067
Ephemeris | Orbit Diagram | Orbital Elements | Mission Design | Physical Parameters | Discovery Circumstances | Close-Approach Data ]

[ show orbit diagram ]
Orbital Elements at Epoch 2459000.5 (2020-May-31.0) TDB
Reference: JPL 18 (heliocentric ecliptic J2000)
 Element Value Uncertainty (1-sigma)   Units 
e .08742192520878725 4.1822e-08  
a 3.224410813140124 2.6e-08 au
q 2.942526612191384 1.4069e-07 au
i 10.30506363437934 4.5648e-06 deg
node 98.06643328764243 2.6737e-05 deg
peri 194.187338701929 3.9908e-05 deg
M 359.7184183949689 2.8271e-05 deg
tp 2459002.154153314794
(2020-Jun-01.65415331)
0.00016607 TDB
period 2114.8227820494
5.79
2.558e-05
7.003e-08
d
yr
n .1702270294493124 2.059e-09 deg/d
Q 3.506295014088865 2.8273e-08 au
  Orbit Determination Parameters
   # obs. used (total)      625  
   data-arc span      8888 days (24.33 yr)  
   first obs. used      1996-05-16  
   last obs. used      2020-09-15  
   planetary ephem.      DE431  
   SB-pert. ephem.      SB431-N16  
   condition code      0  
   norm. resid. RMS      .5786  
   source      ORB  
   producer      Otto Matic  
   solution date      2020-Nov-12 21:28:22  

Additional Information
 Earth MOID = 1.92747 au 
 Jupiter MOID = 1.65473 au 
 T_jup = 3.157 
[ show covariance matrix ]

Ephemeris | Orbit Diagram | Orbital Elements | Mission Design | Physical Parameters | Discovery Circumstances | Close-Approach Data ]

Physical Parameter Table
Parameter Symbol Value Units Sigma Reference Notes
absolute magnitude H 14.6   n/a MPO348007  

78067 (2002 LN1)          Discovered 2002-Jun-02 by NEAT at Palomar
Reference: 20040415/Numbers.arcLast Updated: 2004-04-19

[ show close-approach data ]
Ephemeris | Orbit Diagram | Orbital Elements | Mission Design | Physical Parameters | Discovery Circumstances | Close-Approach Data ]
ABOUT SSD CREDITS/AWARDS PRIVACY/COPYRIGHT GLOSSARY LINKS
FirstGov 2020-Nov-24 18:48 UT
(server date/time)  
NASA Home Page
Site Manager:   Ryan S. Park
Webmaster  Alan B. Chamberlin